Date String (YYYY-MM-DD hh:mm:ss) UTC,Instrument flags,absolute air pressure of the measurement (hPa),sample flow rate (lpm),inlet stack bypass flow (lpm),air temperature of the measurement (°C),ambient temperature measured by the external sensor (°C),aerosol sample conditioner tube jacket temperature (°C),OPC LED temperature (°C),internal box temperature (°C),relative humidity of the measurement (%),span deviation,mass concentration of particles derived from Lorenz-Mie calculation of OPC scattering (μg/m³),mass concentration of particles derived from Lorenz-Mie calculation of OPC scattering (μg/m³),mass concentration of particles derived from Lorenz-Mie calculation of OPC scattering (μg/m³)
DateTimeUTC,F1_M11,P_M11,Q1_M11,Q2_M11,T1_M11,T2_M11,T3_M11,T4_M11,T5_M11,U1_M11,ZSPAN_M11,X0_M11,X2_M11,X1_M11
2023-06-24 00:00:00,SystemResetWarning,0824.8,5.03,000.00,032.2,027.4,000.0,039.9,032.1,33.8,0001.6,0018.25,0008.53,0007.70
2023-06-24 00:01:00,SystemResetWarning,0824.7,4.98,000.00,032.2,025.7,000.0,039.9,032.1,33.2,0002.1,0017.34,0008.51,0007.70
2023-06-24 00:02:00,SystemResetWarning,0824.8,5.02,000.00,032.2,025.0,000.0,039.9,032.0,33.3,0002.2,0016.74,0008.45,0007.67
2023-06-24 00:03:00,SystemResetWarning,0824.7,5.00,000.00,032.1,025.2,000.0,039.8,031.7,33.8,0002.2,0016.54,0008.37,0007.65
2023-06-24 00:04:00,SystemResetWarning,0824.7,5.00,000.00,031.9,025.6,000.0,039.9,031.5,34.2,0002.0,0016.04,0008.40,0007.64
2023-06-24 00:05:00,SystemResetWarning,0824.7,5.00,000.00,031.8,026.1,000.0,039.9,031.6,33.9,0001.9,0016.30,0008.40,0007.64
2023-06-24 00:06:00,SystemResetWarning,0824.7,5.00,000.00,031.8,026.6,000.0,039.9,031.7,34.0,0002.1,0016.24,0008.40,0007.63
2023-06-24 00:07:00,SystemResetWarning,0824.7,4.97,000.00,031.7,027.1,000.0,039.9,031.7,35.3,0002.2,0016.33,0008.44,0007.63
2023-06-24 00:08:00,SystemResetWarning,0824.7,5.01,000.00,031.8,027.5,000.0,039.9,031.9,36.4,0002.5,0016.09,0008.43,0007.62
2023-06-24 00:09:00,SystemResetWarning,0824.7,5.01,000.00,032.1,027.8,000.0,039.9,032.1,36.0,0002.5,0014.76,0008.42,0007.60
2023-06-24 00:10:00,SystemResetWarning,0824.7,5.00,000.00,032.4,028.0,000.0,039.9,032.3,34.6,0002.5,0014.67,0008.44,0007.59
2023-06-24 00:11:00,SystemResetWarning,0824.7,4.98,000.00,032.7,026.9,000.0,039.9,032.3,33.9,0002.5,0014.81,0008.44,0007.60
2023-06-24 00:12:00,SystemResetWarning,0824.7,5.01,000.00,032.9,025.3,000.0,039.9,032.3,33.9,0002.2,0014.96,0008.44,0007.60
2023-06-24 00:13:00,SystemResetWarning,0824.7,5.01,000.00,033.0,025.0,000.0,039.9,032.2,33.0,0002.1,0015.49,0008.44,0007.60
2023-06-24 00:14:00,SystemResetWarning,0824.7,5.00,000.00,032.8,025.3,000.0,040.0,031.8,32.9,0002.2,0016.48,0008.44,0007.59
2023-06-24 00:15:00,SystemResetWarning,0824.7,5.00,000.00,032.7,025.8,000.0,040.1,031.7,33.0,0002.3,0016.91,0008.41,0007.56
2023-06-24 00:16:00,SystemResetWarning,0824.7,5.00,000.00,032.6,026.3,000.0,040.1,031.7,33.5,0002.5,0016.33,0008.39,0007.55
2023-06-24 00:17:00,SystemResetWarning,0824.7,5.00,000.00,032.6,026.8,000.0,040.2,031.8,33.3,0002.2,0016.20,0008.38,0007.54
2023-06-24 00:18:00,SystemResetWarning,0824.7,5.00,000.00,032.5,027.2,000.0,040.2,031.9,33.2,0001.8,0016.37,0008.36,0007.54
2023-06-24 00:19:00,SystemResetWarning,0824.7,5.00,000.00,032.5,027.6,000.0,040.2,032.0,32.8,0001.8,0017.26,0008.37,0007.54
2023-06-24 00:20:00,SystemResetWarning,0824.7,5.00,000.00,032.5,027.9,000.0,040.3,032.1,33.4,0001.8,0018.00,0008.38,0007.55
2023-06-24 00:21:00,SystemResetWarning,0824.7,4.98,000.00,032.5,027.0,000.0,040.2,032.1,33.7,0001.7,0018.02,0008.34,0007.54
2023-06-24 00:22:00,SystemResetWarning,0824.7,5.00,000.00,032.5,025.4,000.0,040.2,032.0,33.4,0001.7,0018.30,0008.33,0007.52
2023-06-24 00:23:00,SystemResetWarning,0824.7,5.01,000.00,032.4,025.0,000.0,040.1,032.0,34.6,0002.1,0018.22,0008.31,0007.51
2023-06-24 00:24:00,SystemResetWarning,0824.6,5.02,000.00,032.3,025.2,000.0,040.1,031.6,34.9,0002.2,0017.76,0008.35,0007.53
2023-06-24 00:25:00,SystemResetWarning,0824.7,5.00,000.00,032.1,025.7,000.0,040.1,031.5,34.7,0002.5,0016.38,0008.38,0007.56
2023-06-24 00:26:00,SystemResetWarning,0824.6,4.97,000.00,032.1,026.2,000.0,040.1,031.6,35.2,0002.2,0015.87,0008.42,0007.61
2023-06-24 00:27:00,SystemResetWarning,0824.6,5.04,000.00,032.2,026.7,000.0,040.1,031.8,35.2,0001.9,0016.93,0008.50,0007.65
2023-06-24 00:28:00,SystemResetWarning,0824.7,4.96,000.00,032.4,027.1,000.0,040.1,032.0,34.5,0002.1,0017.07,0008.59,0007.71
2023-06-24 00:29:00,SystemResetWarning,0824.7,5.01,000.00,032.4,027.5,000.0,040.1,032.1,34.7,0002.3,0017.07,0008.63,0007.74
2023-06-24 00:30:00,SystemResetWarning,0824.7,5.00,000.00,032.5,027.8,000.0,040.1,032.1,35.6,0001.9,0017.63,0008.67,0007.75
2023-06-24 00:31:00,SystemResetWarning,0824.7,5.01,000.00,032.8,027.9,000.0,040.2,032.3,34.6,0002.1,0017.30,0008.72,0007.76
2023-06-24 00:32:00,SystemResetWarning,0824.7,4.97,000.00,033.0,026.4,000.0,040.2,032.4,34.2,0002.1,0017.29,0008.77,0007.77
2023-06-24 00:33:00,SystemResetWarning,0824.7,5.03,000.00,033.1,025.1,000.0,040.1,032.3,33.7,0002.3,0016.54,0008.82,0007.79
2023-06-24 00:34:00,SystemResetWarning,0824.7,4.99,000.00,033.1,025.0,000.0,040.2,032.1,34.0,0002.2,0016.78,0008.85,0007.79
2023-06-24 00:35:00,SystemResetWarning,0824.7,5.00,000.00,032.9,025.3,000.0,040.2,031.7,34.6,0001.9,0018.00,0008.92,0007.79
2023-06-24 00:36:00,SystemResetWarning,0824.7,4.97,000.00,032.8,025.8,000.0,040.3,031.7,34.9,0001.6,0018.07,0008.90,0007.78
2023-06-24 00:37:00,SystemResetWarning,0824.7,5.03,000.00,032.7,026.4,000.0,040.3,031.8,34.2,0001.8,0018.10,0008.92,0007.76
2023-06-24 00:38:00,SystemResetWarning,0824.7,4.98,000.00,032.7,026.8,000.0,040.3,031.9,33.7,0001.9,0018.04,0008.93,0007.74
2023-06-24 00:39:00,SystemResetWarning,0824.7,5.00,000.00,032.7,027.3,000.0,040.4,032.0,34.5,0001.7,0018.17,0008.96,0007.71
2023-06-24 00:40:00,SystemResetWarning,0824.7,5.00,000.00,032.7,027.6,000.0,040.4,032.0,34.4,0002.0,0018.48,0009.04,0007.71
2023-06-24 00:41:00,SystemResetWarning,0824.7,5.01,000.00,032.7,027.9,000.0,040.4,032.1,33.8,0002.6,0017.53,0009.08,0007.71
2023-06-24 00:42:00,SystemResetWarning,0824.7,4.98,000.00,032.7,027.5,000.0,040.4,032.2,34.4,0002.6,0017.75,0009.11,0007.72
2023-06-24 00:43:00,SystemResetWarning,0824.7,5.00,000.00,032.7,025.8,000.0,040.4,032.2,33.9,0002.7,0018.16,0009.17,0007.75
2023-06-24 00:44:00,SystemResetWarning,0824.7,5.01,000.00,032.7,024.9,000.0,040.3,032.1,33.5,0002.5,0018.67,0009.14,0007.77
2023-06-24 00:45:00,SystemResetWarning,0824.7,5.01,000.00,032.6,025.0,000.0,040.3,031.8,33.8,0002.5,0019.11,0009.15,0007.79
2023-06-24 00:46:00,SystemResetWarning,0824.7,5.00,000.00,032.3,025.4,000.0,040.3,031.5,34.5,0002.9,0018.09,0009.19,0007.82
2023-06-24 00:47:00,SystemResetWarning,0824.7,4.99,000.00,032.2,025.9,000.0,040.3,031.6,35.4,0003.1,0018.43,0009.25,0007.87
2023-06-24 00:48:00,SystemResetWarning,0824.7,5.02,000.00,032.2,026.4,000.0,040.2,031.8,34.8,0003.2,0018.73,0009.31,0007.90
2023-06-24 00:49:00,SystemResetWarning,0824.7,4.97,000.00,032.3,026.9,000.0,040.2,031.9,34.3,0003.0,0018.45,0009.34,0007.94
2023-06-24 00:50:00,SystemResetWarning,0824.7,5.02,000.00,032.3,027.3,000.0,040.2,032.0,34.8,0003.0,0018.34,0009.32,0007.96
2023-06-24 00:51:00,SystemResetWarning,0824.6,5.00,000.00,032.4,027.7,000.0,040.2,032.0,34.3,0002.9,0018.53,0009.27,0007.98
2023-06-24 00:52:00,SystemResetWarning,0824.7,4.99,000.00,032.3,027.9,000.0,040.2,032.1,34.4,0002.4,0019.05,0009.26,0007.99
2023-06-24 00:53:00,SystemResetWarning,0824.7,5.00,000.00,032.4,026.9,000.0,040.2,032.2,34.6,0002.4,0018.66,0009.24,0007.98
2023-06-24 00:54:00,SystemResetWarning,0824.5,5.01,000.00,032.4,025.3,000.0,040.1,032.0,34.6,0002.2,0018.57,0009.08,0007.95
2023-06-24 00:55:00,SystemResetWarning,0824.5,5.00,000.00,032.4,024.8,000.0,040.1,032.0,34.2,0001.8,0018.59,0009.06,0007.91
2023-06-24 00:56:00,SystemResetWarning,0824.5,4.98,000.00,032.2,025.0,000.0,040.1,031.6,34.7,0001.7,0018.26,0009.01,0007.87
2023-06-24 00:57:00,SystemResetWarning,0824.5,5.04,000.00,032.1,025.5,000.0,040.0,031.5,34.9,0001.8,0018.53,0008.92,0007.84
2023-06-24 00:58:00,SystemResetWarning,0824.5,4.96,000.00,032.1,026.0,000.0,040.0,031.6,35.2,0001.5,0018.17,0008.92,0007.81
2023-06-24 00:59:00,SystemResetWarning,0824.6,5.03,000.00,032.2,026.5,000.0,040.0,031.8,35.1,0001.2,0018.27,0008.87,0007.79
